sat.trackr.live / text

‹ back to catalog

HONGYUN 1

NORAD 43871 · 2018-108A

PAYLOAD ACTIVE UNKNOWN

§ Identity

Operator
Country
PRC
Launch date
2018-12-21
Launch site
JSC
Launch vehicle
Mass (kg)
RCS (m²)

External: N2YO · Heavens-Above · Gunter

§ Orbital elements

Epoch: 2026-09-20T05:27:25.124832Z

Period
106.54 min
Inclination
99.7456°
Eccentricity
0.0011392
Mean motion
13.51561831 rev/d
Perigee alt
1,058.0 km
Apogee alt
1,075.0 km
Semi-major
7,444.7 km
B*
8.7483e-5
RAAN
283.2124°
Arg perigee
183.5841°
Mean anomaly
176.5214°
Rev number
38,192

§ Raw data

HONGYUN 11 43871U 18108A   26263.22737413  .00000013  00000+0  87483-4 0  99962 43871  99.7456 283.2124 0011392 183.5841 176.5214 13.51561831381926

JSON: /api/v1/satellites/43871 · /tle

For live sub-satellite position, see the globe view (requires WebGL).

§ Visibility from observer

Set your observer location to see the next 7 days of passes ≥ 10°. The values pass through the URL so the page stays shareable.

No JS? Fill the form by hand. The geolocation button needs JavaScript.